Location: Unspecified
(43.4680°N, 87.1740°E)
Time: 20:26:35
(UTC+00:00)

Cosmos 2333 - Pass Details

Date: 17 April 2021
Orbit: 830 x 866 km, 70.9° (Epoch: 12 May)

Event Time Altitude Azimuth Distance (km) Brightness Sun altitude
Rises 14:07:14 0° 335° (NNW) 3,456 8.3 -12.7°
Reaches altitude 10° 14:09:42 10° 335° (NNW) 2,513 7.5 -13.1°
Maximum altitude 14:15:31 88° 66° (ENE) 867 4.2 -14.0°
Enters shadow 14:20:19 15° 156° (SSE) 2,135 5.8 -14.7°
